Location: Drocourt
(49.0571°N, 1.7669°E)
Time: 19:50:52
(UTC+00:00)

Transit 4A - Pass Details

Date: 15 April 2024
Orbit: 871 x 971 km, 66.8° (Epoch: 18 May)

Event Time Altitude Azimuth Distance (km) Brightness Sun altitude
Rises 16:07:11 0° 264° (W) 3,518 12.3 24.8°
Reaches altitude 10° 16:10:16 10° 279° (W) 2,564 11.6 24.3°
Maximum altitude 16:14:53 23° 330° (NNW) 1,794 9.8 23.6°
Drops below altitude 10° 16:19:28 10° 22° (NNE) 2,537 9.9 22.8°
Sets 16:22:30 0° 37° (NE) 3,472 10.5 22.4°
